Location: *
(12.5665°N, 8.3471°E)
Time: 08:34:33
(UTC+00:00)

Cosmos 1680 Rocket - Pass Details

Date: 23 September 2019
Orbit: 760 x 780 km, 74.1° (Epoch: 14 October)

Event Time Altitude Azimuth Distance (km) Brightness Sun altitude
Exits shadow 03:33:07 49° 341° (NNW) 990 3.9 -25.8°
Drops below altitude 10° 03:37:02 10° 5° (N) 2,302 6.1 -24.9°
Sets 03:39:25 0° 8° (N) 3,225 6.9 -24.3°
